Airport Information

KBNO - Burns Municipal Airport

KBNO 191853Z AUTO 28017G22KT 10SM CLR 22/M04 A3011 RMK AO2 SLP170 T02171039


  • General Information

  • Coordinates: N 43°35'30"/ W 118°57'19"
  • Location: N/A
  • Surveyed Elevation: 4159 MSL

Operations

Flow Name Active Runways Conditions

Green background denotes normal operations.


Common Frequencies

Callsign Frequency Position Name

More at the Document Center


Charts